TimeCST,TemperatureF,Dew PointF,Humidity,Sea Level PressureIn,VisibilityMPH,Wind Direction,Wind SpeedMPH,Gust SpeedMPH,PrecipitationIn,Events,Conditions,WindDirDegrees,DateUTC
12:53 AM,61.0,46.0,58,30.20,10.0,South,10.4,-,N/A,,Overcast,180,2011-11-07 06:53:00
1:53 AM,60.1,46.9,62,30.20,10.0,South,6.9,-,N/A,,Partly Cloudy,180,2011-11-07 07:53:00
2:53 AM,61.0,48.0,62,30.21,10.0,South,9.2,-,N/A,,Overcast,180,2011-11-07 08:53:00
3:53 AM,60.1,48.0,64,30.22,10.0,SSW,3.5,-,N/A,,Clear,210,2011-11-07 09:53:00
4:53 AM,59.0,48.0,67,30.22,10.0,South,5.8,-,N/A,,Scattered Clouds,180,2011-11-07 10:53:00
5:53 AM,59.0,48.9,69,30.22,10.0,South,6.9,-,N/A,,Overcast,180,2011-11-07 11:53:00
6:53 AM,61.0,50.0,67,30.23,10.0,South,6.9,-,N/A,,Overcast,190,2011-11-07 12:53:00
7:53 AM,61.0,50.0,67,30.24,10.0,South,9.2,16.1,N/A,,Overcast,180,2011-11-07 13:53:00
8:53 AM,62.1,51.1,67,30.25,10.0,South,5.8,-,N/A,,Overcast,190,2011-11-07 14:53:00
9:53 AM,64.9,52.0,63,30.25,10.0,SW,5.8,-,N/A,,Overcast,220,2011-11-07 15:53:00
10:53 AM,68.0,53.1,59,30.24,10.0,South,6.9,-,N/A,,Partly Cloudy,190,2011-11-07 16:53:00
11:53 AM,68.0,53.1,59,30.22,10.0,SW,5.8,-,N/A,,Overcast,220,2011-11-07 17:53:00
12:53 PM,69.1,53.1,57,30.19,10.0,South,4.6,-,N/A,,Overcast,180,2011-11-07 18:53:00
1:53 PM,72.0,53.1,51,30.15,10.0,SSW,6.9,-,N/A,,Clear,200,2011-11-07 19:53:00
2:53 PM,72.0,54.0,53,30.14,10.0,South,5.8,-,N/A,,Clear,190,2011-11-07 20:53:00
3:53 PM,72.0,54.0,53,30.13,10.0,South,8.1,-,N/A,,Clear,170,2011-11-07 21:53:00
4:53 PM,66.2,53.6,64,30.14,10.0,SSE,5.8,-,N/A,,Clear,160,2011-11-07 22:53:00
5:53 PM,63.0,53.1,70,30.14,10.0,SSE,5.8,-,N/A,,Clear,150,2011-11-07 23:53:00
6:53 PM,63.0,52.0,67,30.13,10.0,SE,5.8,-,N/A,,Clear,140,2011-11-08 00:53:00
7:53 PM,62.6,51.8,68,30.13,10.0,SSE,6.9,-,N/A,,Clear,160,2011-11-08 01:53:00
8:53 PM,63.0,51.1,65,30.14,10.0,SSE,6.9,-,N/A,,Clear,160,2011-11-08 02:53:00
9:53 PM,61.0,51.1,70,30.14,10.0,SSE,5.8,-,N/A,,Clear,160,2011-11-08 03:53:00
10:53 PM,60.1,50.0,69,30.12,10.0,SSE,6.9,-,N/A,,Clear,150,2011-11-08 04:53:00
11:53 PM,60.1,50.0,69,30.11,10.0,SSE,8.1,-,N/A,,Clear,160,2011-11-08 05:53:00